EA2AFZ-W Weather Reports


time (UTC)temp
F
wind
direction
speed
knots
gust
knots
rain 1hr
in
rain 24hr
in
rain mn
in
humidity
%
barometer
mb
20260510201600 57 288 1.7 1.7 0.00 0.00 0.00 77 1010.0
20260510194559 61 220 9.6 9.6 0.00 0.00 0.00 63 1010.0
20260510191557 63 220 9.6 9.6 0.00 0.00 0.00 63 1009.0
20260510184554 64 170 4.3 4.3 0.00 0.00 0.00 67 1009.0
20260510181551 64 90 4.3 4.3 0.00 0.00 0.00 67 1008.0
20260510174549 64 90 4.3 4.3 0.00 0.00 0.00 64 1009.0
20260510171548 64 90 4.3 4.3 0.00 0.00 0.00 60 1008.0
20260510164545 65 90 5.2 5.2 0.00 0.00 0.00 57 1008.0
20260510161543 64 70 4.3 4.3 0.00 0.00 0.00 56 1008.0
20260510154542 62 130 7.0 7.0 0.00 0.00 0.00 55 1008.0
20260510151538 62 130 7.0 7.0 0.00 0.00 0.00 57 1009.0
20260510144537 60 110 7.0 7.0 0.00 0.00 0.00 61 1009.0
20260510141535 55 60 7.0 7.0 0.00 0.00 0.00 68 1010.0
20260510134532 55 250 5.2 5.2 0.00 0.00 0.00 72 1010.0
20260510131529 61 230 13.0 13.0 0.00 0.00 0.00 66 1010.0
20260510124528 69 250 4.3 4.3 0.00 0.00 0.00 39 1008.0
20260510121525 69 81 4.3 4.3 0.00 0.00 0.00 39 1009.0
20260510114523 69 0 4.3 4.3 0.00 0.00 0.00 39 1009.0
20260510111522 69 0 4.3 4.3 0.00 0.00 0.00 38 1009.0
20260510104519 68 0 4.3 4.3 0.00 0.00 0.00 41 1009.0
20260510101518 68 323 3.5 3.5 0.00 0.00 0.00 43 1010.0
20260510094515 65 338 7.0 7.0 0.00 0.00 0.00 45 1010.0
20260510091513 64 338 7.0 7.0 0.00 0.00 0.00 47 1010.0
20260510084511 64 250 7.0 7.0 0.00 0.00 0.00 48 1010.0
20260510081508 64 250 4.3 4.3 0.00 0.00 0.00 48 1009.0
20260510074507 63 329 4.3 4.3 0.00 0.00 0.00 50 1009.0
20260510071604 60 240 4.3 4.3 0.00 0.00 0.00 53 1009.0
20260510064603 60 240 4.3 4.3 0.00 0.00 0.00 55 1009.0
20260510061601 58 150 7.0 7.0 0.00 0.00 0.00 59 1009.0
20260510054558 58 150 7.0 7.0 0.00 0.00 0.00 64 1008.0
20260510051555 59 150 7.0 7.0 0.00 0.00 0.00 62 1008.0
20260510044553 59 150 7.0 7.0 0.00 0.00 0.00 64 1008.0
20260510041552 59 150 7.0 7.0 0.00 0.00 0.00 62 1008.0
20260510034550 60 150 7.0 7.0 0.00 0.00 0.00 61 1008.0
20260510031547 60 150 7.0 7.0 0.00 0.00 0.00 61 1008.0
20260510024545 59 150 7.0 7.0 0.00 0.00 0.00 63 1008.0
20260510021543 59 150 7.8 7.8 0.00 0.00 0.00 61 1008.0
20260510014541 59 150 7.8 7.8 0.00 0.00 0.00 62 1009.0
20260510011538 56 200 9.6 9.6 0.00 0.00 0.00 61 1008.0
20260510004536 57 200 9.6 9.6 0.00 0.00 0.00 63 1008.0
20260510001535 57 200 9.6 9.6 0.00 0.00 0.00 67 1008.0
20260509234533 58 200 9.6 9.6 0.00 0.00 0.00 74 1009.0
20260509231530 59 200 9.6 9.6 0.00 0.00 0.00 79 1008.0
20260509224528 59 200 9.6 9.6 0.00 0.00 0.00 78 1008.0
20260509221526 59 200 9.6 9.6 0.00 0.00 0.00 78 1008.0
20260509214524 59 200 9.6 9.6 0.00 0.00 0.00 76 1008.0
20260509211522 59 200 9.6 9.6 0.00 0.00 0.00 77 1008.0
20260509204519 59 200 9.6 9.6 0.00 0.00 0.00 77 1008.0